When you browse on this site, cookies collect data to enhance your experience and personalize the content and advertising you see.
Visit our Privacy Policy to learn more. By continuing to use the site, you agree to this use of cookies and data.
  • en Suisse
  • Liste des pays
  • À 7 jours
  • Température de l'eau
  • Carte météo
  • Widgets météo
  • user-avatar
    Se connecter

    Météo par heure à Toporovo

    Ce jour, 18 Août, Dimanche

    Heure Température Précipitation Vent Pression Humidité
    00:00 +13°C° 1.2 mm 3 m/s 737 mmHg 98%
    01:00 +14°C° 1.2 mm 3 m/s 737 mmHg 98%
    02:00 +15°C° 1.2 mm 2 m/s 737 mmHg 99%
    03:00 +15°C° 1.1 mm 2 m/s 737 mmHg 98%
    04:00 +14°C° 1.1 mm 3 m/s 737 mmHg 98%
    05:00 +13°C° 1.1 mm 3 m/s 736 mmHg 98%
    06:00 +13°C° 1.2 mm 3 m/s 736 mmHg 98%
    07:00 +13°C° 1.2 mm 3 m/s 736 mmHg 98%
    08:00 +13°C° 1.2 mm 3 m/s 736 mmHg 97%
    09:00 +13°C° 0.8 mm 3 m/s 736 mmHg 97%
    10:00 +14°C° 0.8 mm 3 m/s 737 mmHg 96%
    11:00 +14°C° 0.8 mm 3 m/s 737 mmHg 95%
    12:00 +15°C° 0.3 mm 2 m/s 737 mmHg 94%
    13:00 +16°C° 0.3 mm 2 m/s 737 mmHg 93%
    14:00 +16°C° 0.3 mm 2 m/s 737 mmHg 92%
    15:00 +17°C° 0 mm 2 m/s 738 mmHg 91%
    16:00 +17°C° 0 mm 2 m/s 738 mmHg 89%
    17:00 +17°C° 0 mm 2 m/s 738 mmHg 88%
    18:00 +16°C° 0 mm 1 m/s 738 mmHg 90%
    19:00 +16°C° 0 mm 1 m/s 739 mmHg 93%
    20:00 +15°C° 0 mm 1 m/s 739 mmHg 95%
    21:00 +14°C° 0 mm 1 m/s 739 mmHg 95%
    22:00 +14°C° 0 mm 1 m/s 739 mmHg 96%
    23:00 +14°C° 0 mm 1 m/s 739 mmHg 96%

    Demain, 19 Août, Lundi

    Heure Température Précipitation Vent Pression Humidité
    00:00 +13°C° 0 mm 1 m/s 740 mmHg 96%
    01:00 +13°C° 0 mm 1 m/s 740 mmHg 96%
    02:00 +13°C° 0 mm 2 m/s 740 mmHg 96%
    03:00 +13°C° 0 mm 1 m/s 740 mmHg 96%
    04:00 +13°C° 0 mm 1 m/s 740 mmHg 96%
    05:00 +12°C° 0 mm 1 m/s 740 mmHg 95%
    06:00 +14°C° 0 mm 2 m/s 741 mmHg 92%
    07:00 +16°C° 0 mm 2 m/s 741 mmHg 88%
    08:00 +17°C° 0 mm 2 m/s 741 mmHg 85%
    09:00 +19°C° 0 mm 2 m/s 742 mmHg 78%
    10:00 +21°C° 0 mm 3 m/s 742 mmHg 72%
    11:00 +24°C° 0 mm 3 m/s 742 mmHg 66%
    12:00 +23°C° 0 mm 4 m/s 742 mmHg 65%
    13:00 +25°C° 0 mm 4 m/s 742 mmHg 64%
    14:00 +25°C° 0 mm 4 m/s 742 mmHg 63%
    15:00 +25°C° 0 mm 4 m/s 742 mmHg 67%
    16:00 +25°C° 0 mm 3 m/s 742 mmHg 70%
    17:00 +24°C° 0 mm 3 m/s 742 mmHg 74%
    18:00 +22°C° 0 mm 3 m/s 742 mmHg 79%
    19:00 +20°C° 0 mm 3 m/s 742 mmHg 85%
    20:00 +19°C° 0 mm 3 m/s 742 mmHg 90%
    21:00 +19°C° 0.1 mm 3 m/s 742 mmHg 92%
    22:00 +18°C° 0.1 mm 3 m/s 742 mmHg 93%
    23:00 +18°C° 0.1 mm 3 m/s 742 mmHg 94%

    Après-demain, 20 Août, Mardi

    Heure Température Précipitation Vent Pression Humidité
    00:00 +17°C° 0 mm 2 m/s 743 mmHg 95%
    01:00 +17°C° 0 mm 2 m/s 743 mmHg 96%
    02:00 +17°C° 0 mm 2 m/s 743 mmHg 97%
    03:00 +17°C° 0.3 mm 2 m/s 743 mmHg 97%
    04:00 +18°C° 0.3 mm 1 m/s 743 mmHg 98%
    05:00 +18°C° 0.3 mm 1 m/s 743 mmHg 98%
    06:00 +19°C° 0.1 mm 1 m/s 744 mmHg 96%
    07:00 +20°C° 0.1 mm 1 m/s 744 mmHg 95%
    08:00 +21°C° 0.1 mm 1 m/s 744 mmHg 93%
    09:00 +23°C° 0.1 mm 1 m/s 744 mmHg 87%
    10:00 +24°C° 0.1 mm 1 m/s 745 mmHg 81%
    11:00 +25°C° 0.1 mm 1 m/s 745 mmHg 75%
    12:00 +25°C° 0.3 mm 1 m/s 745 mmHg 77%
    13:00 +25°C° 0.3 mm 2 m/s 745 mmHg 79%
    14:00 +25°C° 0.3 mm 2 m/s 745 mmHg 80%
    15:00 +25°C° 0.7 mm 2 m/s 745 mmHg 83%
    16:00 +25°C° 0.7 mm 1 m/s 745 mmHg 86%
    17:00 +25°C° 0.7 mm 1 m/s 745 mmHg 88%
    18:00 +23°C° 0.8 mm 1 m/s 745 mmHg 90%
    19:00 +22°C° 0.8 mm 1 m/s 745 mmHg 92%
    20:00 +20°C° 0.8 mm 1 m/s 745 mmHg 95%
    21:00 +20°C° 0 mm 1 m/s 745 mmHg 95%
    22:00 +17°C° 0 mm 0 m/s 745 mmHg 95%
    23:00 +17°C° 0 mm 0 m/s 746 mmHg 95%

    21 Août, Mercredi

    Heure Température Précipitation Vent Pression Humidité
    00:00 +16°C° 0 mm 0 m/s 746 mmHg 95%
    01:00 +18°C° 0 mm 1 m/s 746 mmHg 96%
    02:00 +18°C° 0 mm 1 m/s 746 mmHg 96%
    03:00 +16°C° 0 mm 1 m/s 746 mmHg 96%
    04:00 +16°C° 0 mm 1 m/s 746 mmHg 96%
    05:00 +16°C° 0 mm 1 m/s 746 mmHg 95%
    06:00 +16°C° 0 mm 0 m/s 746 mmHg 93%
    07:00 +18°C° 0 mm 0 m/s 746 mmHg 90%
    08:00 +19°C° 0 mm 0 m/s 746 mmHg 87%
    09:00 +21°C° 0 mm 0 m/s 746 mmHg 81%
    10:00 +22°C° 0 mm 0 m/s 746 mmHg 75%
    11:00 +24°C° 0 mm 0 m/s 746 mmHg 69%
    12:00 +24°C° 0.3 mm 0 m/s 746 mmHg 68%
    13:00 +24°C° 0.3 mm 0 m/s 745 mmHg 68%
    14:00 +24°C° 0.3 mm 0 m/s 745 mmHg 68%
    15:00 +25°C° 0.9 mm 1 m/s 745 mmHg 75%
    16:00 +24°C° 0.9 mm 1 m/s 744 mmHg 82%
    17:00 +23°C° 0.9 mm 1 m/s 744 mmHg 89%
    18:00 +22°C° 0.2 mm 1 m/s 744 mmHg 91%
    19:00 +21°C° 0.2 mm 1 m/s 743 mmHg 92%
    20:00 +21°C° 0.2 mm 1 m/s 743 mmHg 94%
    21:00 +20°C° 0.7 mm 1 m/s 743 mmHg 95%
    22:00 +20°C° 0.7 mm 1 m/s 743 mmHg 95%
    23:00 +20°C° 0.7 mm 1 m/s 743 mmHg 96%

    22 Août, Jeudi

    Heure Température Précipitation Vent Pression Humidité
    00:00 +19°C° 1 mm 2 m/s 743 mmHg 97%
    01:00 +18°C° 1 mm 2 m/s 743 mmHg 97%
    02:00 +18°C° 1 mm 3 m/s 743 mmHg 98%
    03:00 +17°C° 0.5 mm 3 m/s 743 mmHg 97%
    04:00 +15°C° 0.5 mm 4 m/s 743 mmHg 96%
    05:00 +14°C° 0.5 mm 4 m/s 743 mmHg 96%
    06:00 +14°C° 0 mm 4 m/s 744 mmHg 95%
    07:00 +14°C° 0 mm 4 m/s 744 mmHg 94%
    08:00 +14°C° 0 mm 4 m/s 744 mmHg 92%
    09:00 +17°C° 0 mm 4 m/s 745 mmHg 84%
    10:00 +18°C° 0 mm 4 m/s 745 mmHg 75%
    11:00 +20°C° 0 mm 4 m/s 746 mmHg 66%
    12:00 +21°C° 0 mm 4 m/s 746 mmHg 63%
    13:00 +21°C° 0 mm 3 m/s 746 mmHg 60%
    14:00 +22°C° 0 mm 3 m/s 746 mmHg 58%
    15:00 +22°C° 0 mm 3 m/s 746 mmHg 61%
    16:00 +21°C° 0 mm 3 m/s 746 mmHg 65%
    17:00 +21°C° 0 mm 2 m/s 746 mmHg 68%
    18:00 +19°C° 0 mm 2 m/s 746 mmHg 73%
    19:00 +17°C° 0 mm 2 m/s 746 mmHg 77%
    20:00 +15°C° 0 mm 2 m/s 746 mmHg 82%
    21:00 +15°C° 0 mm 2 m/s 747 mmHg 84%
    22:00 +14°C° 0 mm 2 m/s 747 mmHg 87%
    23:00 +13°C° 0 mm 2 m/s 747 mmHg 89%

    23 Août, Vendredi

    Heure Température Précipitation Vent Pression Humidité
    00:00 +13°C° 0 mm 2 m/s 747 mmHg 91%
    01:00 +12°C° 0 mm 2 m/s 747 mmHg 92%
    02:00 +12°C° 0 mm 1 m/s 747 mmHg 93%
    03:00 +11°C° 0 mm 1 m/s 747 mmHg 93%
    04:00 +11°C° 0 mm 1 m/s 747 mmHg 94%
    05:00 +11°C° 0 mm 1 m/s 747 mmHg 94%
    06:00 +13°C° 0 mm 1 m/s 747 mmHg 87%
    07:00 +15°C° 0 mm 1 m/s 747 mmHg 80%
    08:00 +16°C° 0 mm 1 m/s 747 mmHg 74%
    09:00 +19°C° 0 mm 1 m/s 747 mmHg 69%
    10:00 +20°C° 0 mm 1 m/s 747 mmHg 64%
    11:00 +20°C° 0 mm 2 m/s 747 mmHg 59%
    12:00 +20°C° 0.1 mm 2 m/s 747 mmHg 60%
    13:00 +20°C° 0.1 mm 2 m/s 747 mmHg 60%
    14:00 +20°C° 0.1 mm 2 m/s 747 mmHg 60%
    15:00 +19°C° 0.2 mm 2 m/s 747 mmHg 67%
    16:00 +18°C° 0.2 mm 2 m/s 747 mmHg 74%
    17:00 +17°C° 0.2 mm 2 m/s 746 mmHg 81%
    18:00 +16°C° 0.1 mm 2 m/s 746 mmHg 85%
    19:00 +15°C° 0.1 mm 2 m/s 746 mmHg 88%
    20:00 +13°C° 0.1 mm 2 m/s 746 mmHg 91%
    21:00 +13°C° 0 mm 2 m/s 747 mmHg 92%
    22:00 +13°C° 0 mm 2 m/s 747 mmHg 93%
    23:00 +12°C° 0 mm 2 m/s 747 mmHg 94%
    Voir plus